Time,TemperatureF,DewpointF,PressureIn,WindDirection,WindDirectionDegrees,WindSpeedMPH,WindSpeedGustMPH,Humidity,HourlyPrecipIn,Conditions,Clouds,dailyrainin,SolarRadiationWatts/m^2,SoftwareType,DateUTC
2013-09-01 00:06:00,67.9,66.0,29.74,NW,317,0.0,3.0,94,0.00,,,0.00,0,weatherlink.com 1.10,2013-09-01 04:06:00,
2013-09-01 00:21:00,67.8,66.0,29.74,NW,311,0.0,3.0,94,0.00,,,0.00,0,weatherlink.com 1.10,2013-09-01 04:21:00,
2013-09-01 00:36:00,67.7,66.0,29.74,NW,311,1.0,2.0,94,0.00,,,0.00,0,weatherlink.com 1.10,2013-09-01 04:36:00,
2013-09-01 00:51:00,67.6,66.0,29.74,NW,311,0.0,1.0,94,0.00,,,0.00,0,weatherlink.com 1.10,2013-09-01 04:51:00,
2013-09-01 01:06:00,67.5,66.0,29.75,WSW,250,0.0,2.0,94,0.00,,,0.00,0,weatherlink.com 1.10,2013-09-01 05:06:00,
2013-09-01 01:21:00,67.2,66.0,29.74,NW,309,0.0,3.0,94,0.00,,,0.00,0,weatherlink.com 1.10,2013-09-01 05:21:00,
2013-09-01 01:36:00,67.2,66.0,29.74,WNW,298,0.0,3.0,94,0.00,,,0.00,0,weatherlink.com 1.10,2013-09-01 05:36:00,
2013-09-01 01:51:00,67.1,65.0,29.74,WNW,302,0.0,3.0,94,0.00,,,0.00,0,weatherlink.com 1.10,2013-09-01 05:51:00,
2013-09-01 02:06:00,67.1,65.0,29.74,WNW,302,0.0,0.0,94,0.00,,,0.00,0,weatherlink.com 1.10,2013-09-01 06:06:00,
2013-09-01 02:21:00,67.0,65.0,29.74,WNW,302,0.0,0.0,94,0.00,,,0.00,0,weatherlink.com 1.10,2013-09-01 06:21:00,
2013-09-01 02:36:00,66.7,65.0,29.73,WNW,302,0.0,0.0,94,0.00,,,0.00,0,weatherlink.com 1.10,2013-09-01 06:36:00,
2013-09-01 02:51:00,66.5,65.0,29.73,WNW,302,0.0,0.0,94,0.00,,,0.00,0,weatherlink.com 1.10,2013-09-01 06:51:00,
2013-09-01 03:06:00,66.3,65.0,29.74,WNW,302,0.0,0.0,94,0.00,,,0.00,0,weatherlink.com 1.10,2013-09-01 07:06:00,
2013-09-01 03:21:00,66.3,65.0,29.74,WNW,302,0.0,0.0,95,0.00,,,0.00,0,weatherlink.com 1.10,2013-09-01 07:21:00,
2013-09-01 03:36:00,66.2,65.0,29.75,WNW,302,0.0,0.0,95,0.00,,,0.00,0,weatherlink.com 1.10,2013-09-01 07:36:00,
2013-09-01 03:51:00,66.1,65.0,29.75,WNW,302,0.0,0.0,95,0.00,,,0.00,0,weatherlink.com 1.10,2013-09-01 07:51:00,
2013-09-01 04:06:00,65.9,65.0,29.76,WNW,302,0.0,0.0,95,0.00,,,0.00,0,weatherlink.com 1.10,2013-09-01 08:06:00,
2013-09-01 04:21:00,65.9,65.0,29.76,WNW,302,0.0,0.0,95,0.00,,,0.00,0,weatherlink.com 1.10,2013-09-01 08:21:00,
2013-09-01 04:36:00,65.9,65.0,29.76,WNW,302,0.0,0.0,95,0.00,,,0.00,0,weatherlink.com 1.10,2013-09-01 08:36:00,
2013-09-01 04:51:00,65.6,64.0,29.76,WNW,302,0.0,0.0,95,0.00,,,0.00,0,weatherlink.com 1.10,2013-09-01 08:51:00,
2013-09-01 05:07:00,65.1,64.0,29.76,WNW,302,0.0,0.0,95,0.00,,,0.00,0,weatherlink.com 1.10,2013-09-01 09:07:00,
2013-09-01 05:22:00,64.8,63.0,29.77,WNW,302,0.0,0.0,95,0.00,,,0.00,0,weatherlink.com 1.10,2013-09-01 09:22:00,
2013-09-01 05:37:00,64.5,63.0,29.77,WNW,302,0.0,0.0,95,0.00,,,0.00,0,weatherlink.com 1.10,2013-09-01 09:37:00,
2013-09-01 05:52:00,64.3,63.0,29.77,WNW,302,0.0,0.0,95,0.00,,,0.00,0,weatherlink.com 1.10,2013-09-01 09:52:00,
2013-09-01 06:07:00,64.1,63.0,29.78,WNW,302,0.0,0.0,95,0.00,,,0.00,0,weatherlink.com 1.10,2013-09-01 10:07:00,
2013-09-01 06:22:00,64.4,63.0,29.79,WNW,302,0.0,0.0,96,0.00,,,0.00,0,weatherlink.com 1.10,2013-09-01 10:22:00,
2013-09-01 06:37:00,64.7,63.0,29.80,WNW,302,0.0,0.0,95,0.00,,,0.00,7,weatherlink.com 1.10,2013-09-01 10:37:00,
2013-09-01 06:52:00,65.1,64.0,29.80,WNW,302,0.0,0.0,96,0.00,,,0.00,14,weatherlink.com 1.10,2013-09-01 10:52:00,
2013-09-01 07:07:00,65.6,65.0,29.81,NW,308,0.0,0.0,96,0.00,,,0.00,21,weatherlink.com 1.10,2013-09-01 11:07:00,
2013-09-01 07:22:00,65.8,64.0,29.81,NNW,327,0.0,3.0,95,0.00,,,0.00,35,weatherlink.com 1.10,2013-09-01 11:22:00,
2013-09-01 07:37:00,66.1,65.0,29.81,WNW,294,0.0,2.0,95,0.00,,,0.00,91,weatherlink.com 1.10,2013-09-01 11:37:00,
2013-09-01 07:52:00,67.4,65.0,29.81,NNW,346,1.0,3.0,92,0.00,,,0.00,62,weatherlink.com 1.10,2013-09-01 11:52:00,
2013-09-01 08:07:00,68.4,65.0,29.81,North,360,2.0,4.0,89,0.00,,,0.00,54,weatherlink.com 1.10,2013-09-01 12:07:00,
2013-09-01 08:22:00,68.8,65.0,29.82,North,360,2.0,4.0,87,0.00,,,0.00,84,weatherlink.com 1.10,2013-09-01 12:22:00,
2013-09-01 08:37:00,69.3,64.0,29.82,North,355,3.0,5.0,84,0.00,,,0.00,88,weatherlink.com 1.10,2013-09-01 12:37:00,
2013-09-01 08:52:00,70.2,65.0,29.82,NW,313,1.0,7.0,82,0.00,,,0.00,79,weatherlink.com 1.10,2013-09-01 12:52:00,
2013-09-01 09:07:00,70.4,64.0,29.82,NW,309,2.0,5.0,80,0.00,,,0.00,77,weatherlink.com 1.10,2013-09-01 13:07:00,
2013-09-01 09:22:00,71.6,64.0,29.82,NW,309,1.0,5.0,76,0.00,,,0.00,134,weatherlink.com 1.10,2013-09-01 13:22:00,
2013-09-01 09:37:00,71.8,63.0,29.82,West,274,2.0,6.0,74,0.00,,,0.00,83,weatherlink.com 1.10,2013-09-01 13:37:00,
2013-09-01 09:52:00,72.8,64.0,29.82,NW,325,2.0,5.0,75,0.00,,,0.00,269,weatherlink.com 1.10,2013-09-01 13:52:00,
2013-09-01 10:07:00,72.2,65.0,29.82,WNW,299,0.0,6.0,77,0.00,,,0.00,278,weatherlink.com 1.10,2013-09-01 14:07:00,
2013-09-01 10:22:00,73.8,64.0,29.82,NNW,340,2.0,6.0,71,0.00,,,0.00,489,weatherlink.com 1.10,2013-09-01 14:22:00,
2013-09-01 10:37:00,74.0,64.0,29.82,West,267,1.0,6.0,71,0.00,,,0.00,139,weatherlink.com 1.10,2013-09-01 14:37:00,
2013-09-01 10:52:00,74.0,63.0,29.82,NNW,327,0.0,7.0,69,0.00,,,0.00,633,weatherlink.com 1.10,2013-09-01 14:52:00,
2013-09-01 11:07:00,73.0,63.0,29.82,WNW,300,1.0,8.0,72,0.00,,,0.00,302,weatherlink.com 1.10,2013-09-01 15:07:00,
2013-09-01 11:23:00,74.7,63.0,29.82,NW,305,1.0,8.0,68,0.00,,,0.00,759,weatherlink.com 1.10,2013-09-01 15:23:00,
2013-09-01 11:38:00,74.2,63.0,29.82,West,279,0.0,7.0,69,0.00,,,0.00,515,weatherlink.com 1.10,2013-09-01 15:38:00,
2013-09-01 11:53:00,74.5,63.0,29.82,NW,309,0.0,8.0,67,0.00,,,0.00,181,weatherlink.com 1.10,2013-09-01 15:53:00,
2013-09-01 12:08:00,73.6,62.0,29.82,NW,309,1.0,5.0,67,0.00,,,0.00,186,weatherlink.com 1.10,2013-09-01 16:08:00,
2013-09-01 12:23:00,74.8,62.0,29.82,NNW,331,1.0,6.0,64,0.00,,,0.00,670,weatherlink.com 1.10,2013-09-01 16:23:00,
2013-09-01 12:38:00,76.0,62.0,29.82,SE,136,1.0,7.0,63,0.00,,,0.00,701,weatherlink.com 1.10,2013-09-01 16:38:00,
2013-09-01 12:53:00,76.5,62.0,29.81,NNE,17,2.0,5.0,61,0.00,,,0.00,782,weatherlink.com 1.10,2013-09-01 16:53:00,
2013-09-01 13:08:00,77.5,63.0,29.82,WNW,287,1.0,6.0,61,0.00,,,0.00,860,weatherlink.com 1.10,2013-09-01 17:08:00,
2013-09-01 13:23:00,77.5,63.0,29.81,WNW,303,0.0,8.0,61,0.00,,,0.00,148,weatherlink.com 1.10,2013-09-01 17:23:00,
2013-09-01 13:38:00,76.4,63.0,29.81,WNW,296,2.0,5.0,63,0.00,,,0.00,243,weatherlink.com 1.10,2013-09-01 17:38:00,
2013-09-01 13:53:00,77.5,63.0,29.81,WNW,292,4.0,9.0,61,0.00,,,0.00,390,weatherlink.com 1.10,2013-09-01 17:53:00,
2013-09-01 14:08:00,77.1,64.0,29.81,NNE,27,5.0,6.0,64,0.00,,,0.00,807,weatherlink.com 1.10,2013-09-01 18:08:00,
2013-09-01 14:23:00,77.5,62.0,29.81,ESE,108,1.0,8.0,60,0.00,,,0.00,427,weatherlink.com 1.10,2013-09-01 18:23:00,
2013-09-01 14:38:00,76.9,63.0,29.81,NW,316,1.0,6.0,62,0.00,,,0.00,336,weatherlink.com 1.10,2013-09-01 18:38:00,
2013-09-01 14:53:00,77.0,63.0,29.80,WNW,298,6.0,6.0,62,0.00,,,0.00,751,weatherlink.com 1.10,2013-09-01 18:53:00,
2013-09-01 15:08:00,76.9,61.0,29.80,NW,312,0.0,5.0,59,0.00,,,0.00,339,weatherlink.com 1.10,2013-09-01 19:08:00,
2013-09-01 15:23:00,77.1,62.0,29.80,NNW,337,2.0,4.0,59,0.00,,,0.00,418,weatherlink.com 1.10,2013-09-01 19:23:00,
2013-09-01 15:38:00,77.6,63.0,29.79,NW,316,6.0,6.0,61,0.00,,,0.00,364,weatherlink.com 1.10,2013-09-01 19:38:00,
2013-09-01 15:53:00,77.5,62.0,29.79,NW,305,3.0,6.0,60,0.00,,,0.00,371,weatherlink.com 1.10,2013-09-01 19:53:00,
2013-09-01 16:08:00,77.6,62.0,29.79,NW,311,1.0,7.0,59,0.00,,,0.00,320,weatherlink.com 1.10,2013-09-01 20:08:00,
2013-09-01 16:23:00,77.8,63.0,29.79,NW,326,3.0,6.0,60,0.00,,,0.00,229,weatherlink.com 1.10,2013-09-01 20:23:00,
2013-09-01 16:38:00,77.3,63.0,29.79,NW,325,2.0,7.0,62,0.00,,,0.00,148,weatherlink.com 1.10,2013-09-01 20:38:00,
2013-09-01 16:53:00,76.9,63.0,29.79,WNW,290,1.0,5.0,63,0.00,,,0.00,139,weatherlink.com 1.10,2013-09-01 20:53:00,
2013-09-01 17:08:00,76.4,63.0,29.79,WNW,299,1.0,5.0,64,0.00,,,0.00,83,weatherlink.com 1.10,2013-09-01 21:08:00,
2013-09-01 17:23:00,76.3,63.0,29.79,WNW,284,0.0,5.0,63,0.00,,,0.00,47,weatherlink.com 1.10,2013-09-01 21:23:00,
2013-09-01 17:38:00,76.1,63.0,29.79,WNW,299,4.0,6.0,63,0.00,,,0.00,100,weatherlink.com 1.10,2013-09-01 21:38:00,
2013-09-01 17:53:00,75.6,63.0,29.80,NW,308,3.0,6.0,64,0.00,,,0.00,46,weatherlink.com 1.10,2013-09-01 21:53:00,
2013-09-01 18:08:00,74.7,63.0,29.80,NW,320,2.0,3.0,67,0.00,,,0.00,47,weatherlink.com 1.10,2013-09-01 22:08:00,
2013-09-01 18:23:00,74.3,63.0,29.80,NW,314,1.0,3.0,69,0.00,,,0.00,49,weatherlink.com 1.10,2013-09-01 22:23:00,
2013-09-01 18:38:00,73.7,64.0,29.80,NW,313,0.0,3.0,71,0.00,,,0.00,39,weatherlink.com 1.10,2013-09-01 22:38:00,
2013-09-01 18:53:00,73.1,64.0,29.79,NW,319,1.0,2.0,73,0.00,,,0.00,16,weatherlink.com 1.10,2013-09-01 22:53:00,
2013-09-01 19:08:00,72.3,64.0,29.79,NW,316,0.0,1.0,75,0.00,,,0.00,11,weatherlink.com 1.10,2013-09-01 23:08:00,
2013-09-01 19:23:00,71.5,64.0,29.78,NW,317,0.0,2.0,77,0.00,,,0.00,0,weatherlink.com 1.10,2013-09-01 23:23:00,
2013-09-01 19:38:00,70.8,64.0,29.79,NE,44,2.0,3.0,79,0.00,,,0.00,0,weatherlink.com 1.10,2013-09-01 23:38:00,
2013-09-01 19:53:00,69.8,64.0,29.79,NNW,331,0.0,2.0,82,0.00,,,0.00,0,weatherlink.com 1.10,2013-09-01 23:53:00,
2013-09-01 20:08:00,69.3,63.0,29.80,NNW,331,0.0,0.0,81,0.00,,,0.00,0,weatherlink.com 1.10,2013-09-02 00:08:00,
2013-09-01 20:23:00,68.8,63.0,29.80,NNW,331,0.0,0.0,82,0.00,,,0.00,0,weatherlink.com 1.10,2013-09-02 00:23:00,
2013-09-01 20:38:00,67.9,63.0,29.80,NNW,331,0.0,2.0,85,0.00,,,0.00,0,weatherlink.com 1.10,2013-09-02 00:38:00,
2013-09-01 20:53:00,67.4,63.0,29.80,NNW,331,0.0,0.0,86,0.00,,,0.00,0,weatherlink.com 1.10,2013-09-02 00:53:00,
2013-09-01 21:08:00,66.7,63.0,29.80,NNW,331,0.0,0.0,87,0.00,,,0.00,0,weatherlink.com 1.10,2013-09-02 01:08:00,
2013-09-01 21:23:00,66.4,63.0,29.80,NNW,331,0.0,0.0,88,0.00,,,0.00,0,weatherlink.com 1.10,2013-09-02 01:23:00,
2013-09-01 21:38:00,66.4,63.0,29.80,NNW,331,0.0,0.0,89,0.00,,,0.00,0,weatherlink.com 1.10,2013-09-02 01:38:00,
2013-09-01 21:53:00,66.5,63.0,29.80,NNW,331,0.0,1.0,88,0.00,,,0.00,0,weatherlink.com 1.10,2013-09-02 01:53:00,
2013-09-01 22:08:00,66.4,63.0,29.81,NNW,331,0.0,0.0,89,0.00,,,0.00,0,weatherlink.com 1.10,2013-09-02 02:08:00,
2013-09-01 22:23:00,66.3,63.0,29.80,NNW,331,0.0,0.0,89,0.00,,,0.00,0,weatherlink.com 1.10,2013-09-02 02:23:00,
2013-09-01 22:38:00,66.1,63.0,29.80,NNW,331,0.0,0.0,89,0.00,,,0.00,0,weatherlink.com 1.10,2013-09-02 02:38:00,
2013-09-01 22:53:00,65.8,63.0,29.80,NNW,331,0.0,0.0,89,0.00,,,0.00,0,weatherlink.com 1.10,2013-09-02 02:53:00,
2013-09-01 23:08:00,65.7,62.0,29.80,NNW,331,0.0,0.0,89,0.00,,,0.00,0,weatherlink.com 1.10,2013-09-02 03:08:00,
2013-09-01 23:23:00,65.7,63.0,29.80,NNW,331,0.0,0.0,90,0.00,,,0.00,0,weatherlink.com 1.10,2013-09-02 03:23:00,
2013-09-01 23:38:00,65.9,63.0,29.80,NNW,331,0.0,0.0,89,0.00,,,0.00,0,weatherlink.com 1.10,2013-09-02 03:38:00,
2013-09-01 23:53:00,66.0,63.0,29.80,NNW,331,0.0,0.0,89,0.00,,,0.00,0,weatherlink.com 1.10,2013-09-02 03:53:00,